Location: Luxembourg
(49.6117°N, 6.1300°E)
Time: 10:46:33
(UTC+01:00)

N. Korean satellite - Pass Details

Date: 24 January 2019
Orbit: 457 x 510 km, 97.2° (Epoch: 17 February)

Event Time Altitude Azimuth Distance (km) Brightness Sun altitude
Rises 17:59:14 0° 170° (S) 2,586 10.4 -7.0°
Reaches altitude 10° 18:01:18 10° 172° (S) 1,713 9.5 -7.3°
Maximum altitude 18:05:00 73° 258° (WSW) 537 7.0 -7.9°
Drops below altitude 10° 18:08:46 10° 344° (NNW) 1,742 9.3 -8.4°
Sets 18:10:53 0° 346° (NNW) 2,634 10.2 -8.8°
